Location: Boda
(47.1872°N, 9.5454°E)
Time: 09:43:48
(UTC+00:00)

UNK - Pass Details

Date: 14 May 2021
Orbit: 666 x 686 km, 98.2° (Epoch: 16 June)

Event Time Altitude Azimuth Distance (km) Brightness Sun altitude
Exits shadow 00:38:04 26° 132° (SE) 1,303 5.0 -21.8°
Maximum altitude 00:40:19 50° 71° (ENE) 858 4.4 -21.6°
Drops below altitude 10° 00:44:45 10° 356° (N) 2,105 7.2 -21.4°
Sets 00:47:02 0° 351° (N) 3,022 8.1 -21.2°
